Theta_e
333 333 334 333 335 334 335 334 336 336 337 337 338 339 341 342 344 344 345 344 344 345 346 346 350 349 348 348 349 349 349 350 349 349 346 347 347 348 347 349 349 349 350 350 350 350 353 355 355 356 356 356 357 356 357 361 361 362 359 361 357 359 357
332 334 333 334 332 330 335 335 336 336 336 336 338 338 341 343 344 344 345 345 344 345 347 345 351 349 349 349 350 349 349 350 352 354 351 351 353 350 349 350 349 351 351 352 352 352 353 354 355 353 354 356 356 356 357 361 361 360 360 360 358 357 358
335 335 335 337 334 334 336 338 336 336 336 336 338 338 341 343 344 345 346 346 344 345 349 346 350 350 349 349 349 350 350 350 351 352 350 350 350 351 352 352 350 350 352 353 353 353 356 353 354 353 353 353 355 356 357 361 361 361 359 358 360 359 357
335 335 337 336 337 339 342 340 339 337 337 337 337 338 342 343 345 346 347 347 345 345 349 347 348 350 350 349 350 350 351 350 351 351 350 350 352 352 351 351 352 351 351 351 354 355 355 355 353 354 360 353 355 358 358 361 362 361 359 358 357 357 357
334 337 336 338 338 337 339 344 342 340 337 338 338 339 343 345 346 346 348 348 347 345 350 350 349 350 351 350 351 352 352 351 351 351 351 350 351 351 350 351 352 352 352 352 353 356 353 353 352 353 355 354 354 358 359 361 361 361 359 358 357 357 356
334 334 334 336 338 340 342 344 346 343 338 337 336 338 342 345 346 346 348 349 348 347 350 351 350 350 350 351 350 351 352 352 352 352 351 350 349 348 348 348 349 352 352 352 352 353 353 352 351 353 354 355 354 356 359 360 361 361 359 358 358 358 357
333 333 333 335 337 341 342 344 347 343 340 340 339 341 343 345 346 346 348 349 349 347 349 351 351 350 350 352 350 350 350 351 352 351 351 350 349 348 348 348 350 348 351 353 352 352 351 351 351 352 355 354 355 355 356 358 359 360 360 358 358 359 359
336 334 335 335 338 342 344 345 344 346 340 341 342 342 343 346 347 347 348 350 350 349 349 351 352 352 351 352 351 349 350 351 351 352 351 350 349 348 347 347 347 348 349 350 351 351 352 351 353 353 353 353 354 354 355 357 358 359 359 358 358 358 361
338 337 336 337 337 341 345 343 340 342 340 338 341 341 343 345 345 346 347 349 350 350 350 352 353 353 352 351 351 350 351 351 351 351 351 350 350 349 348 348 347 348 348 349 350 351 352 352 351 352 353 352 353 353 353 354 357 358 358 358 358 357 359
334 335 339 341 340 342 342 341 342 342 339 339 339 338 338 343 344 345 346 347 348 349 349 350 350 352 351 351 351 351 350 350 351 351 351 350 350 349 348 345 344 346 347 349 350 349 351 352 351 351 353 353 353 353 353 353 355 356 357 356 357 357 357
336 336 337 339 340 341 340 341 343 341 341 341 341 339 341 343 343 345 345 346 346 345 348 349 347 348 348 347 345 345 346 350 351 350 351 350 350 349 346 345 345 348 345 343 343 345 346 350 351 350 352 353 353 354 354 355 355 354 355 356 357 357 356
335 335 334 336 337 339 339 341 343 342 342 343 342 340 340 342 342 343 344 345 346 345 346 347 347 347 349 349 348 347 346 346 348 350 350 350 350 349 351 348 348 349 348 345 346 348 346 344 348 351 351 352 353 354 355 355 354 353 353 353 353 354 353
335 336 336 336 337 338 339 340 340 341 343 344 343 343 342 343 344 344 344 344 344 345 345 346 348 347 348 349 348 349 350 350 349 350 351 352 351 354 354 351 349 351 352 351 348 346 346 348 350 351 350 351 352 353 354 354 355 354 352 352 351 351 351
338 338 339 338 337 336 336 336 337 339 340 340 341 342 343 343 342 341 342 342 344 346 346 346 348 347 346 346 347 349 351 350 350 350 348 352 353 356 356 359 358 356 356 355 352 352 350 349 350 351 352 350 351 356 355 353 353 353 352 351 350 350 349
334 336 337 337 336 337 337 336 337 337 339 339 340 340 342 341 341 342 342 342 344 346 346 347 347 347 346 346 346 347 349 349 348 351 352 356 356 356 357 358 357 357 357 357 356 357 354 354 350 350 352 353 353 354 354 353 352 353 355 352 350 351 350
334 335 336 336 334 333 334 334 336 337 337 338 339 340 341 341 341 342 343 342 345 347 348 345 346 347 346 344 343 347 352 354 358 356 356 355 355 355 356 357 357 358 357 356 356 355 356 353 352 352 352 352 349 346 343 341 343 346 347 351 356 353 354
332 332 333 333 334 333 333 334 334 334 333 333 335 337 339 340 341 342 344 346 348 348 350 347 345 349 350 349 349 348 350 351 355 356 355 355 354 353 353 353 355 354 353 354 354 354 356 352 350 351 352 348 341 337 335 334 335 336 335 336 344 353 351
331 331 331 331 331 331 333 334 333 333 333 333 335 337 338 339 340 341 343 344 345 350 352 349 347 346 344 345 347 347 346 349 350 350 351 353 353 353 352 353 352 351 352 352 353 353 353 352 351 351 345 338 335 331 328 327 329 326 330 334 335 343 349
331 331 332 332 332 331 333 334 334 334 334 334 335 336 339 340 338 338 340 342 344 347 348 343 342 342 343 344 343 343 344 344 344 344 344 346 349 350 351 350 348 347 348 349 352 350 348 348 350 344 337 333 329 326 325 324 325 324 326 329 330 333 346
331 332 332 333 333 333 334 335 335 336 336 335 336 338 338 342 340 339 342 342 342 343 345 343 341 342 343 344 343 343 344 344 344 345 345 344 345 346 346 345 343 344 347 347 348 346 347 347 340 336 332 328 325 323 323 323 323 322 324 325 328 331 338
329 331 331 332 333 333 334 334 335 336 336 338 340 340 338 338 339 341 342 342 342 342 341 342 342 342 343 343 343 343 343 342 343 344 343 342 342 343 343 342 341 343 347 348 348 347 346 344 339 334 330 327 324 323 320 319 319 320 323 324 328 333 345
328 329 329 331 331 332 333 334 334 335 336 339 338 339 340 341 343 343 342 343 341 341 340 339 338 339 341 340 342 342 343 342 341 340 341 341 341 342 342 343 343 344 345 345 344 344 344 342 335 329 326 325 324 322 320 320 316 318 321 323 328 340 350
331 330 330 332 334 334 335 335 336 337 337 337 338 338 339 340 342 341 341 341 340 340 340 340 339 339 340 340 341 343 342 342 341 341 340 340 340 340 341 343 344 344 345 341 339 338 336 333 330 330 327 325 324 321 319 319 316 314 316 319 323 335 340
334 331 333 335 336 337 337 337 338 339 339 339 339 339 339 339 339 339 339 339 339 339 339 339 339 340 340 340 342 342 342 342 341 340 340 339 338 338 337 338 339 339 339 335 333 331 331 330 329 329 329 327 324 323 319 317 316 312 312 315 321 333 336
335 334 335 336 336 336 337 338 339 341 340 339 338 339 340 339 338 338 338 338 338 338 337 337 338 338 339 340 341 341 340 340 340 339 338 337 336 335 334 334 334 335 334 332 331 331 331 331 328 327 328 328 326 325 318 318 317 312 311 313 317 327 329
330 333 334 335 336 335 336 338 337 336 337 338 339 341 341 341 341 340 339 339 340 339 338 338 339 340 340 341 341 341 341 340 340 338 337 335 335 335 334 335 333 332 331 330 329 328 327 327 325 324 324 325 324 322 320 318 318 317 310 311 313 318 326
330 334 333 333 334 338 334 334 334 334 335 336 338 339 339 339 338 338 339 339 338 338 339 340 340 340 340 340 340 340 339 339 338 337 336 336 334 335 334 333 331 330 328 326 326 325 324 324 324 323 323 323 323 322 322 322 319 319 311 310 311 315 320
327 331 333 336 337 334 332 333 333 334 335 335 334 335 334 334 334 335 337 337 337 339 341 341 341 340 339 338 339 339 338 338 337 337 336 336 334 332 331 331 330 328 326 325 324 323 322 323 324 321 321 321 322 322 321 327 329 323 318 313 311 311 317
323 325 327 327 327 330 327 325 325 325 326 327 327 328 328 327 326 326 326 327 332 337 339 339 338 338 337 337 337 337 336 336 337 336 336 335 333 331 329 330 329 328 328 325 324 322 321 321 321 321 320 321 321 322 323 323 327 328 326 319 313 312 314
321 322 324 326 326 326 327 324 324 323 324 325 326 326 326 325 324 324 322 322 325 328 330 330 333 336 336 337 335 335 336 336 336 335 334 334 333 332 330 329 329 330 329 327 326 323 321 320 321 321 321 322 322 323 322 320 319 325 326 324 316 313 312
321 322 323 324 325 327 325 323 322 322 323 324 325 326 325 324 323 324 322 323 322 321 321 321 321 320 321 325 330 328 324 323 324 328 332 333 333 332 332 331 331 329 328 329 327 324 323 322 324 322 322 319 318 317 317 317 316 316 322 324 323 317 314
320 322 323 324 323 324 323 323 322 321 322 322 324 324 325 323 323 323 322 325 327 321 318 318 318 318 318 320 320 320 321 319 319 319 320 320 320 321 320 323 323 321 320 322 325 326 326 325 323 320 319 316 316 316 315 315 314 314 314 319 320 319 319
319 320 321 321 323 324 322 322 321 321 321 321 323 324 325 326 327 327 328 328 328 328 325 321 319 319 317 317 318 318 317 316 315 315 316 316 317 317 317 317 316 317 319 318 319 321 323 325 324 321 319 317 316 315 315 314 312 312 312 311 311 312 314
316 317 319 321 321 321 320 320 320 321 322 321 323 325 326 327 327 328 328 329 328 324 324 325 319 314 313 316 318 318 318 319 323 316 312 312 313 313 314 314 314 312 312 312 314 315 316 319 319 320 319 315 315 315 315 314 313 311 309 310 309 309 310
318 318 319 319 320 321 319 320 321 321 322 321 322 323 323 324 325 326 326 327 325 323 324 325 328 320 315 314 315 317 318 314 313 312 310 309 309 307 307 309 312 312 310 309 305 311 314 314 315 317 315 315 314 313 314 314 313 313 305 307 303 303 305
317 318 318 319 320 319 320 321 321 321 321 319 321 321 321 321 322 323 324 325 325 324 323 324 321 318 316 314 313 314 315 314 312 312 312 309 309 308 308 308 300 302 311 311 312 306 306 310 312 314 313 311 312 313 312 312 313 306 298 295 294 296 297
318 318 319 320 319 320 320 320 322 320 320 319 321 321 321 320 320 321 322 323 323 324 322 321 321 319 318 319 317 318 317 314 312 311 309 309 309 309 310 307 307 297 297 304 306 300 297 299 303 307 312 319 311 309 305 305 300 295 293 294 295 295 296
320 319 320 321 321 321 320 320 320 320 320 320 320 319 319 319 319 320 321 322 321 321 321 321 320 318 319 319 321 324 321 314 316 315 313 311 310 310 309 307 307 306 300 296 299 298 295 295 296 298 303 308 313 316 309 302 296 294 296 297 297 296 297
Wind_Speed
4 4 6 2 7 4 14 14 14 14 14 13 13 13 13 13 13 12 12 12 12 9 8 8 8 7 7 6 5 4 4 4 3 4 4 5 5 6 5 5 5 5 5 5 6 6 6 5 6 6 5 5 5 5 4 4 4 4 4 4 3 3 4
7 5 3 12 5 9 11 10 13 14 12 13 13 13 13 14 13 13 13 13 14 13 11 10 9 8 8 7 6 5 5 5 4 3 4 5 4 5 6 6 6 6 5 5 6 6 5 6 6 6 6 6 6 5 5 4 4 4 4 3 3 3 3
4 5 6 2 4 5 4 9 11 14 13 12 14 13 14 14 14 15 13 13 13 12 10 10 10 9 8 7 6 7 7 6 4 5 5 6 5 6 6 5 6 6 6 6 5 6 5 5 5 6 6 6 6 5 5 4 4 5 4 3 4 4 4
7 6 6 5 4 1 2 1 9 10 12 13 15 15 15 16 15 14 14 15 14 12 12 11 10 10 9 9 7 7 7 7 6 6 5 4 6 5 6 6 6 5 5 6 6 7 6 6 6 6 7 7 7 6 5 6 5 5 5 4 5 5 4
6 7 9 6 2 1 2 2 3 8 10 12 15 15 16 15 15 12 13 14 15 16 14 13 11 10 9 9 8 7 8 8 7 6 5 5 4 4 5 6 6 6 6 6 6 7 7 6 6 7 7 7 7 6 7 6 6 6 6 5 5 4 5
9 9 8 8 5 3 1 1 2 2 8 10 15 14 15 16 13 15 14 13 13 13 13 12 12 11 11 10 9 8 6 7 6 6 6 6 5 5 5 5 6 6 6 8 6 7 7 6 6 6 7 7 8 7 6 7 7 6 6 6 6 5 5
8 7 8 8 7 3 1 3 3 3 2 6 3 10 11 12 13 14 12 14 14 14 13 13 12 11 10 9 10 9 8 8 7 8 7 7 6 7 6 7 6 6 7 6 6 7 6 6 6 7 7 8 7 7 7 7 7 6 6 6 6 6 6
6 9 7 8 6 4 3 2 4 1 3 7 3 9 14 12 12 12 11 10 10 10 11 12 12 11 9 8 8 9 8 8 7 7 7 8 8 8 8 8 7 8 7 7 7 6 7 5 2 3 6 8 8 7 7 7 7 8 6 6 6 6 5
2 5 6 7 7 3 2 4 4 3 6 3 8 8 2 10 11 10 9 10 10 12 12 10 10 8 7 7 6 7 7 8 8 8 8 9 8 8 9 8 9 9 8 8 8 6 7 7 8 7 7 7 7 7 7 6 7 7 6 6 7 7 6
2 5 6 6 5 4 3 4 5 7 8 5 6 11 3 8 4 8 9 8 7 6 4 5 4 4 3 2 1 5 7 7 9 10 10 10 9 9 7 6 6 6 9 9 9 8 7 9 9 9 8 8 8 8 7 7 6 6 7 7 7 6 6
3 5 6 7 7 5 5 5 5 8 6 6 8 10 11 7 3 7 8 7 8 9 5 2 1 5 6 8 7 6 10 7 9 9 10 10 9 9 5 4 3 3 3 2 3 2 3 4 6 9 8 9 9 8 8 8 7 6 5 5 6 7 6
3 5 6 7 7 6 5 4 4 7 8 6 7 10 9 6 4 4 4 6 8 9 8 3 1 4 4 4 7 8 6 8 10 10 11 10 8 7 5 3 2 2 2 3 2 2 2 3 4 4 6 8 9 9 9 8 7 6 6 6 5 5 5
1 3 4 5 6 6 5 5 6 4 6 9 6 4 4 4 6 7 7 5 3 3 5 7 5 3 7 6 6 7 9 8 4 10 5 7 6 4 3 3 2 2 2 2 3 3 2 2 2 1 5 6 5 6 7 7 7 7 7 6 6 6 6
5 5 7 6 6 6 7 6 7 7 4 7 7 7 6 4 3 4 9 11 9 5 5 4 5 6 6 7 8 7 8 9 9 5 9 5 3 3 3 3 3 3 2 2 3 2 2 1 1 0 1 2 3 0 1 1 1 1 4 5 6 6 5
5 7 7 8 7 7 8 6 5 6 2 6 8 8 7 5 5 6 6 2 7 11 11 7 6 7 6 7 8 7 7 7 9 10 11 7 5 4 4 4 4 4 3 2 2 1 0 1 3 3 4 4 5 5 5 5 4 3 2 1 2 3 4
4 5 7 7 8 7 8 7 7 6 3 4 5 5 6 7 3 1 5 6 3 1 4 4 5 6 6 6 7 6 5 6 7 8 7 5 5 5 4 4 3 3 3 3 3 1 1 1 2 3 5 6 5 5 5 4 3 5 8 7 2 1 2
6 8 7 7 8 7 6 5 6 6 7 5 3 5 7 7 4 1 0 0 1 2 3 3 2 2 1 4 5 5 5 5 5 5 5 5 4 4 4 3 2 2 1 1 1 1 1 2 3 4 4 5 5 5 4 4 3 6 6 7 8 4 2
7 7 8 6 8 8 6 4 3 4 5 3 2 3 5 7 7 5 3 4 2 1 2 5 4 5 7 8 8 9 8 6 5 5 4 4 4 5 5 4 3 3 2 2 1 1 1 2 4 5 6 5 6 6 4 3 6 5 4 5 6 6 1
5 5 6 8 8 7 6 6 5 3 2 1 1 3 2 3 6 6 4 5 3 2 5 7 8 7 7 5 6 4 3 6 8 8 7 7 4 4 4 4 3 2 2 2 1 1 1 2 5 6 5 6 6 4 3 2 6 4 3 2 9 2 3
6 5 4 5 7 7 5 5 4 5 8 5 1 3 3 3 2 3 5 7 5 6 3 7 6 5 6 6 6 4 2 5 8 7 5 1 2 4 5 4 2 2 2 2 2 2 2 4 5 5 5 5 5 5 3 4 8 8 5 2 2 4 5
5 6 6 6 5 5 5 5 5 4 5 6 6 5 6 3 3 2 5 7 7 3 1 3 7 5 5 5 5 4 1 1 3 4 4 4 4 5 5 4 4 2 2 2 2 2 3 4 6 5 6 5 5 5 5 4 9 7 5 3 3 6 6
3 3 4 4 5 4 5 4 4 4 3 2 5 5 5 6 6 5 6 7 8 5 1 1 3 5 4 5 4 4 3 4 4 4 4 4 4 4 4 4 3 4 3 3 3 4 5 7 7 7 6 6 5 5 4 4 8 7 7 7 6 4 5
2 2 3 4 5 4 3 3 3 3 3 4 5 6 5 5 7 8 7 7 6 6 5 5 7 7 6 5 4 5 5 5 5 4 5 5 5 5 4 3 3 3 3 5 5 7 8 7 7 6 7 7 6 5 5 5 9 9 9 9 9 6 5
2 3 5 6 5 4 4 3 3 3 4 5 6 5 6 6 7 8 7 6 6 6 5 7 8 7 7 6 5 5 5 5 5 5 5 5 6 5 6 6 6 6 5 7 7 8 7 7 8 7 7 7 7 6 6 7 9 10 10 10 10 7 6
2 5 7 7 6 6 5 4 4 4 4 5 6 5 5 7 8 9 7 7 6 6 7 7 7 7 8 8 7 6 6 6 6 7 7 6 6 6 7 7 6 6 6 7 7 7 6 7 8 7 6 6 6 10 8 6 7 11 11 12 11 8 6
6 8 8 7 6 5 5 5 7 7 6 7 6 6 6 6 8 8 8 8 7 7 7 6 5 6 7 7 7 7 7 6 7 7 7 8 7 7 6 5 6 6 7 6 6 7 7 7 7 8 6 5 5 6 6 4 4 6 12 13 13 10 7
6 8 9 10 9 8 5 4 6 7 7 5 6 7 6 7 8 8 7 7 7 7 6 5 5 5 6 7 7 7 7 6 7 7 6 6 6 6 6 5 6 6 6 6 5 6 7 8 7 6 6 5 4 4 3 1 2 6 11 12 12 11 8
8 8 6 8 10 7 5 5 7 9 8 6 6 7 6 8 9 7 6 6 7 6 5 5 5 5 6 7 7 7 7 6 6 6 6 5 5 6 6 5 6 6 5 5 5 7 7 6 6 6 5 5 4 4 3 5 9 5 10 11 11 10 9
9 9 9 9 9 7 6 5 6 8 8 7 7 6 6 9 9 7 5 6 5 4 4 4 5 5 6 6 7 6 6 6 6 6 5 6 6 6 6 5 6 6 5 6 6 7 6 5 4 4 4 4 5 4 5 6 7 12 8 11 12 11 9
8 9 10 10 10 9 8 6 6 8 7 7 7 6 5 8 8 6 7 5 3 4 4 4 4 4 5 5 6 6 6 6 6 6 6 6 6 6 7 6 5 4 4 4 5 5 5 4 4 4 5 5 5 6 6 6 6 9 12 9 12 12 12
10 10 10 10 8 8 7 8 8 7 7 6 7 5 5 5 8 6 5 1 3 5 5 5 5 5 5 5 5 7 6 6 6 6 5 5 5 5 5 5 4 5 3 4 4 4 4 4 3 5 5 6 6 6 6 6 6 6 9 12 11 11 12
9 9 9 8 6 6 5 6 6 7 7 5 5 5 4 5 6 6 2 2 4 4 5 6 8 8 7 7 6 6 8 8 8 8 8 7 6 6 5 5 5 5 4 4 4 4 5 5 5 5 5 5 5 5 5 5 5 6 6 7 8 8 10
8 9 9 9 6 6 7 6 7 6 5 5 4 5 5 6 6 5 5 6 4 5 6 7 7 7 7 8 7 7 7 8 7 7 7 6 6 6 6 5 6 6 5 5 5 5 5 5 5 5 5 5 5 5 5 5 5 5 5 6 6 6 6
7 6 6 8 6 6 5 5 4 5 4 4 3 5 6 6 6 7 6 6 5 6 7 6 7 7 7 7 7 6 7 7 10 9 7 6 6 6 6 6 5 6 5 5 6 7 6 5 5 4 5 5 4 5 5 5 5 5 6 6 7 6 6
8 9 9 9 7 7 7 5 6 6 6 5 4 5 6 6 6 6 6 5 5 6 7 7 6 7 7 6 7 6 6 6 6 6 7 7 7 6 5 5 5 5 4 1 0 2 6 7 4 4 3 4 4 5 6 5 5 3 2 3 5 4 6
8 9 8 8 8 8 7 7 8 7 7 4 4 6 6 6 5 5 4 4 4 6 8 6 7 7 6 5 6 6 6 6 6 6 6 7 7 7 7 9 8 6 4 3 6 5 3 4 4 5 5 6 3 2 4 5 2 1 3 4 5 5 5
10 9 9 9 9 8 8 6 7 7 6 5 5 6 6 5 5 5 4 5 4 6 7 7 7 6 6 5 5 6 6 6 6 5 6 6 6 6 7 5 7 9 10 8 5 5 7 8 9 6 4 6 5 3 6 6 4 2 2 3 4 6 8
9 9 8 8 10 9 9 7 7 7 6 5 5 5 5 5 4 4 4 4 5 5 6 6 7 7 6 6 5 6 5 6 5 5 5 4 4 5 5 6 6 5 6 5 5 6 6 6 5 5 7 8 8 6 2 2 2 2 2 3 6 8 10
Wind_Direction
162 255 302 267 349 219 175 175 174 176 175 178 179 177 170 171 171 172 173 176 181 176 184 179 179 178 186 196 204 197 201 200 184 192 185 195 183 176 181 190 189 196 205 200 212 207 215 212 206 210 213 215 219 221 222 217 206 211 203 197 197 194 212
175 206 90 341 105 340 316 197 174 178 177 179 179 175 170 173 171 173 175 177 179 178 182 184 180 182 186 194 201 199 201 211 189 195 182 186 199 182 183 183 183 200 204 219 221 221 207 218 205 209 213 215 221 219 216 216 208 205 206 211 205 222 214
172 121 84 360 323 183 353 312 201 180 179 177 179 175 174 174 174 174 173 176 177 178 177 183 185 183 185 189 195 206 203 207 197 195 183 185 192 186 189 193 197 191 206 213 220 227 220 217 206 215 214 215 222 217 212 212 209 201 207 211 218 222 228
107 122 126 136 245 52 316 335 302 209 181 178 179 175 174 174 175 174 173 174 176 174 177 184 184 184 188 188 196 205 205 208 207 197 198 187 192 194 187 200 208 208 209 217 213 214 217 214 205 208 212 209 211 210 204 209 205 202 205 199 215 224 224
139 148 158 162 195 148 30 285 270 286 205 179 178 173 173 172 172 174 176 178 176 178 180 180 183 186 189 190 197 201 205 206 210 207 199 197 195 195 196 205 211 215 220 218 216 217 220 216 207 204 206 200 202 200 205 206 207 205 205 201 213 220 228
162 166 160 157 156 160 127 26 279 277 279 191 174 170 170 170 171 175 177 177 181 181 175 175 182 184 188 193 196 199 201 208 207 207 207 203 199 207 211 212 210 219 222 225 218 214 212 203 203 202 199 198 201 201 205 205 213 208 209 207 210 212 216
176 161 157 157 161 151 29 344 323 166 153 323 169 150 154 162 170 175 176 178 178 176 177 178 183 185 190 189 196 197 199 204 201 205 204 206 207 212 220 228 224 222 222 213 217 218 220 212 198 195 198 196 201 205 203 206 213 212 211 207 214 215 217
167 162 169 157 142 126 87 9 307 353 162 115 85 146 147 152 153 165 173 174 168 174 181 180 182 184 187 191 194 200 202 207 205 205 203 204 210 211 219 224 224 228 232 225 224 213 222 199 202 230 207 198 203 204 204 208 212 214 209 210 215 225 219
128 128 160 172 163 167 113 68 359 353 60 24 101 25 1 152 151 152 149 154 166 171 183 182 183 178 176 185 192 203 206 206 212 211 210 209 210 212 214 220 224 223 223 227 230 214 205 188 199 211 215 211 206 205 206 205 212 214 209 211 211 218 222
124 115 120 129 135 137 82 89 71 44 86 133 113 112 68 316 131 133 142 153 160 159 84 56 71 102 107 112 216 212 207 214 216 214 217 218 220 218 211 209 216 222 222 225 223 211 202 196 199 202 202 210 209 208 214 211 212 213 209 209 207 209 212
114 125 115 117 123 118 110 91 92 108 130 144 134 145 168 182 178 140 142 145 126 94 46 343 122 139 152 135 103 29 341 272 223 220 215 218 221 222 206 179 172 165 162 184 182 194 208 235 212 196 195 204 205 208 210 211 208 202 195 198 201 204 200
121 146 137 119 110 110 111 116 109 111 113 108 135 161 178 158 141 103 103 117 121 133 136 160 180 158 126 123 136 138 130 318 296 228 211 216 213 206 188 175 167 139 118 126 120 66 80 163 207 234 217 205 203 204 207 206 200 190 189 190 187 191 193
97 132 153 141 118 111 100 92 89 80 102 112 112 115 86 87 110 105 99 88 71 99 129 154 151 160 149 151 156 156 153 164 234 310 263 198 197 190 179 176 170 135 117 113 93 93 105 63 52 207 202 225 226 217 211 199 192 189 187 186 185 189 193
98 104 109 107 112 104 91 80 71 55 61 97 107 104 99 89 68 114 135 130 116 87 332 295 158 170 169 165 172 181 178 170 157 202 268 257 180 159 142 118 111 113 105 82 90 119 137 159 157 95 40 244 209 124 62 69 101 188 195 188 188 186 193
86 100 100 105 96 89 93 101 99 99 77 101 113 104 81 67 70 57 12 13 148 158 171 207 196 188 189 187 186 190 187 179 178 180 204 211 158 139 121 121 130 132 122 108 115 103 234 230 153 119 93 81 95 103 97 96 67 30 360 228 188 173 180
91 87 99 105 91 68 81 78 83 92 77 49 54 70 97 112 95 134 142 160 284 167 156 167 218 189 186 196 199 191 186 182 175 173 170 151 132 127 120 114 112 116 131 142 136 152 266 50 116 114 122 116 99 91 92 86 82 38 25 22 3 201 162
65 69 54 54 83 104 94 81 86 92 92 84 77 100 94 86 80 8 21 346 216 155 134 145 275 292 223 220 197 179 178 166 148 141 135 135 120 108 96 78 69 64 75 69 74 81 74 102 108 103 88 84 87 77 59 49 44 50 59 44 14 16 38
79 84 89 79 80 67 61 88 92 101 102 119 90 54 101 134 140 135 122 112 107 247 145 103 63 43 30 6 14 20 12 8 31 50 47 63 68 80 80 78 61 46 42 85 85 86 70 106 122 107 93 90 89 80 72 60 24 8 38 94 68 18 345
84 85 99 115 111 110 126 120 123 113 127 38 57 51 22 137 144 134 116 82 20 290 106 100 98 86 66 30 56 38 36 44 39 25 9 348 39 71 93 90 77 73 65 40 37 90 92 64 86 96 98 102 98 79 66 65 11 347 1 6 90 82 290
120 114 104 100 119 131 128 120 113 122 138 147 219 105 360 317 109 109 100 83 31 352 62 119 123 124 128 135 134 180 174 125 130 141 142 161 58 62 69 74 78 59 36 33 32 56 54 76 86 83 83 83 86 91 54 41 359 344 337 24 142 188 211
143 142 137 133 127 123 121 123 123 113 94 120 141 150 149 132 303 141 125 115 114 99 12 91 110 104 100 98 117 130 103 42 60 84 90 88 82 79 68 63 49 354 357 45 76 92 96 96 94 80 68 58 50 58 46 24 354 346 350 329 186 182 174
163 157 136 134 127 130 120 115 120 114 104 105 102 95 96 120 146 114 102 107 108 114 236 274 92 90 79 72 75 90 106 90 69 63 69 72 79 94 113 129 167 163 148 103 75 69 76 73 74 74 65 56 53 63 44 359 357 3 13 26 49 75 99
169 126 126 121 116 118 105 105 96 99 91 77 79 90 87 90 95 96 95 97 108 124 144 131 102 93 80 62 52 58 58 67 73 61 53 60 71 62 56 74 117 122 109 81 59 63 65 71 73 68 64 50 32 30 24 4 357 360 34 39 32 70 82
159 147 128 112 110 106 97 75 58 58 82 88 78 76 83 90 100 101 104 110 113 107 93 84 83 84 85 79 62 56 60 64 74 77 67 58 59 62 61 58 57 62 66 82 79 73 76 87 84 74 73 70 55 37 21 7 351 359 28 42 52 59 72
131 139 128 121 117 109 100 97 89 84 71 77 77 73 88 97 99 99 94 92 90 87 87 81 85 85 93 98 102 99 89 86 83 83 84 81 75 71 66 60 70 76 78 84 92 89 83 76 80 77 62 63 74 70 57 5 349 358 29 40 42 57 56
142 128 122 118 105 103 112 118 109 92 85 85 83 85 81 84 87 87 89 86 86 85 88 89 91 99 99 102 103 103 101 99 98 96 95 92 86 83 80 83 77 68 77 71 73 82 80 84 81 77 68 60 60 59 58 38 359 11 28 40 38 44 69
144 135 135 124 110 109 105 113 108 103 95 88 95 92 88 88 85 82 84 90 91 96 100 108 110 107 105 106 104 100 98 95 101 103 98 97 98 92 85 83 89 84 80 83 81 83 77 74 73 73 67 54 42 55 58 78 36 33 41 41 39 38 54
132 115 91 94 106 103 99 100 100 97 88 75 81 88 86 89 86 84 93 98 97 98 98 100 97 95 99 100 101 103 102 105 98 95 95 93 93 91 86 81 84 85 88 85 86 84 77 71 69 73 70 53 55 58 35 35 44 35 36 36 34 33 35
125 124 118 107 94 86 91 80 80 86 84 72 66 67 82 89 85 84 77 79 82 90 95 98 100 105 107 107 108 105 104 100 100 99 99 97 96 98 95 88 89 91 93 94 85 82 85 85 89 90 82 70 55 44 38 25 30 35 39 33 33 33 38
84 96 97 97 104 109 109 104 98 94 90 86 75 67 63 89 90 85 82 81 88 82 81 80 85 93 93 97 95 95 91 90 90 93 95 101 101 95 93 88 87 86 84 86 96 103 97 86 82 71 68 66 51 41 32 26 22 24 29 32 31 29 29
104 107 110 113 119 118 116 119 114 106 96 90 85 76 72 78 91 85 80 58 96 102 99 88 83 80 80 83 85 80 75 68 67 73 76 77 85 90 92 92 91 90 84 101 99 105 108 112 98 81 75 64 58 40 31 19 23 18 16 20 25 22 21
111 114 114 113 108 106 109 106 104 105 103 94 99 94 85 73 77 81 82 92 86 89 97 103 97 91 91 87 82 85 88 82 72 65 63 66 63 65 63 83 84 81 61 72 90 104 111 104 90 88 82 80 65 57 42 29 25 20 13 10 11 15 9
126 129 126 117 116 111 104 107 109 107 107 104 77 72 63 66 65 69 59 54 60 79 85 80 84 86 87 89 88 85 86 87 87 79 64 59 66 65 62 62 76 78 66 63 77 84 87 82 92 89 85 83 77 70 57 43 32 18 11 11 7 9 360
123 102 99 109 109 106 106 109 113 109 101 91 80 84 81 72 64 58 51 43 55 76 78 80 86 90 91 91 90 82 84 86 84 86 78 61 61 62 62 56 65 76 70 75 82 98 85 90 83 87 100 100 86 77 64 49 40 28 12 5 3 1 4
124 123 121 120 124 123 126 126 115 111 105 104 103 93 79 70 62 58 61 61 69 83 84 83 86 90 85 85 87 89 91 90 89 91 92 88 75 67 50 41 48 79 84 28 224 52 111 113 105 101 92 90 87 92 80 65 54 27 358 355 356 353 358
125 122 122 123 120 119 116 117 119 114 111 113 103 90 83 77 66 58 58 70 74 85 92 94 91 88 86 85 89 92 88 86 87 90 93 93 96 91 75 59 62 24 76 84 28 15 349 121 134 149 134 101 59 43 112 107 112 48 4 344 348 354 357
127 126 129 128 118 117 116 120 117 113 108 107 95 89 89 84 79 72 62 72 79 89 97 99 99 99 102 103 104 106 104 101 95 93 91 95 98 97 100 86 46 45 37 37 46 32 49 89 115 124 142 126 128 72 66 84 95 59 354 10 6 17 28
128 130 132 130 129 130 125 123 119 120 124 119 107 103 98 94 86 88 80 76 76 81 90 97 107 115 123 122 119 113 111 118 120 111 106 96 95 99 106 106 96 46 33 40 34 24 42 51 60 89 113 127 135 138 102 131 141 124 76 48 43 46 56